Weather in Polazna

Russia / Perm Krai     58°17′41″N   56°24′18″E
temp.,
°C
wind,
m/s
gust,
m/s
humid.,
%
clouds,
%
prec.,
mm/h
press.,
hPa
HPBL,
m
3 march, wed
wed323:00−8ssw41095100 1.1 995429
02:00−6sw3995100 1.7 994373
05:00−7sw2697100 1.9 994202
08:00−7wsw379898 0.1 994204
11:00−6wsw359598 0.2 995256
14:00−3wsw359496 0.1 996434
17:00−2wsw369398 0.5 996517
20:00−5w2297100 0.3 99625
4 march, thu
thu423:00−6wnw129797 0.4 99723
02:00−8wnw2496100 0.3 995115
05:00−10w269799 0.4 996154
08:00−12wsw379697 0.1 995234
11:00−10sw369599 0.1 996275
14:00−7sw3790100 0.2 995550
17:00−6ssw4792100 0.3 994627
20:00−7s3996100 0.3 993377
5 march, fri
fri523:00−8sse2796100 0.7 992235
02:00−10se129793 0.3 99121
05:00−10w009794 0.4 99421
08:00−10w129795 0.3 99621
11:00−8nw249497 0.5 998308
14:00−6wnw238694 0.1 999548
17:00−6w139197 0.3 1000381
20:00−11nw129690 0.1 100121
6 march, sat
sat623:00−13nnw259766 0.2 1003134
02:00−17nw229874 0.0 100521
05:00−19w229977 0.1 100721
08:00−19wsw259897 0.1 1008158
11:00−15w369396 0.1 1009336
14:00−11w358598 0.0 1009568
17:00−10sw248683 0.0 1008623
20:00−14ssw2397100 0.0 100773
7 march, sun
sun723:00−15ssw279799 0.1 1007225
02:00−15wsw2697100 0.3 1007168
05:00−17nw2498100 0.4 1008127
08:00−22wnw1210094 0.1 100820
11:00−17wsw238971 0.1 1009296
14:00−13sw358549 0.0 1009586
17:00−12sw468773 0.1 1008909
20:00−16ssw239779 0.1 100978